Regional Weather Roundup
Issued by NWS Sterling, VA

Home | Current Version | Previous Version | Text Only | Print | Product List | Glossary On
Versions: 1 2 3 4 5 6 7 8 9 10 11 12 13 14 15 16 17 18 19 20 21 22 23 24 25 26 27 28 29 30 31 32 33 34 35 36 37 38 39 40 41 42 43 44 45 46 47 48 49 50
000
ASUS41 KLWX 260110
RWRLWX

REGIONAL WEATHER ROUNDUP
NATIONAL WEATHER SERVICE BALTIMORE MD/WASHINGTON DC
800 PM EST TUE NOV 25 2014

Note: "FAIR" indicates few or no clouds below 12,000 feet
with no significant weather and/or obstructions to visibility.
 TC=TEMPERATURE CELSIUS

 * =Non NWS site. Station does not report precipitation (e.g. rain,
    snow, etc.), thunder, or fog.

DCZ001-MDZ009-015-VAZ040>042-051-053>054-260200-
WASHINGTON METRO

CITY           SKY/WX    TMP DP  RH WIND       PRES   REMARKS
WASHINGTON NAT MOCLDY    53  33  46 CALM      30.13R
DULLES         PTCLDY    41  35  79 CALM      30.12R
ANDREWS AFB    MOCLDY    47  35  62 CALM      30.12R
FT BELVOIR     MOCLDY    46  37  71 CALM      30.13R
QUANTICO       MOCLDY    47  41  80 NW3       30.13R
COLLEGE PARK*  MOCLDY    43  36  75 CALM      30.12R
LEESBURG*      PTCLDY    43  36  75 CALM      30.12R
GAITHERSBURG*  CLEAR     43  28  56 CALM      30.16R

$$

MDZ006>007-011-014-260200-
BALTIMORE METRO

CITY           SKY/WX    TMP DP  RH WIND       PRES   REMARKS
BWI AIRPORT    MOCLDY    44  32  62 CALM      30.12R
MD SCIENCE CTR   N/A     49  33  54 MISG      30.13R
MARTIN STATE   PTCLDY    43  37  81 CALM      30.14
ANNAPOLIS      CLOUDY    47  39  74 CALM      30.12R
FORT MEADE*    PTCLDY    39  32  75 CALM      30.15R

$$

MDZ012-015-019>023-260200-
MARYLAND EASTERN SHORE

CITY           SKY/WX    TMP DP  RH WIND       PRES   REMARKS
OCEAN CITY     CLOUDY    49  41  74 NE3       30.11S
SALISBURY      CLOUDY    52  39  61 CALM      30.10S
BAY BRIDGE AP*   N/A     46  36  66 CALM      30.13R
CAMBRIDGE*     CLOUDY    48  41  76 CALM      30.10F
EASTON*        MOCLDY    48  39  71 CALM      30.15R

$$

MDZ017>025-260200-
SOUTHERN MARYLAND

CITY           SKY/WX    TMP DP  RH WIND       PRES   REMARKS
PATUXENT RIVER CLOUDY    47  40  76 CALM      30.10F
ST INIGOES     CLOUDY    49  40  71 CALM      30.10F
LEONARDTOWN*   CLOUDY    46  37  71 CALM      30.11F

$$

MDZ003>005-260200-
NORTH CENTRAL MARYLAND

CITY           SKY/WX    TMP DP  RH WIND       PRES   REMARKS
FREDERICK*     CLEAR     41  30  65 CALM      30.14R
HAGERSTOWN APT PTCLDY    44  28  53 CALM      30.11R
WESTMINSTER*   CLEAR     43  30  61 CALM      30.11R

$$

MDZ501>502-260200-
WESTERN MARYLAND

CITY           SKY/WX    TMP DP  RH WIND       PRES   REMARKS
OAKLAND*       PTCLDY    36  23  60 W6        30.08S
CUMBERLAND*    PTCLDY    46  28  49 W3        30.15S

$$

VAZ025>031-260200-
SHENANDOAH VALLEY

CITY           SKY/WX    TMP DP  RH WIND       PRES   REMARKS
WINCHESTER*    PTCLDY    37  27  65 CALM      30.11R
FRONT ROYAL*   FAIR      39  30  70 CALM      30.10R
LURAY*         FAIR      41  34  75 CALM      30.09S
NEW MARKET*    FAIR      34  30  85 CALM      30.10S
STAUNTON*      MOCLDY    39  30  69 CALM      30.12S
WAYNESBORO*    FAIR      42  28  57 CALM      30.10R

$$

WVZ021-048>050-054>055-260200-
EASTERN WEST VIRGINIA PANHANDLE

CITY           SKY/WX    TMP DP  RH WIND       PRES   REMARKS
MARTINSBURG    PTCLDY    38  27  64 W5        30.11R
PETERSBURG*    PTCLDY    37  27  66 CALM      30.12R

$$

VAZ036>039-050-260200-
CENTRAL FOOTHILLS

CITY           SKY/WX    TMP DP  RH WIND       PRES   REMARKS
CHARLOTTESVILL CLOUDY    49  31  49 CALM      30.10R
CULPEPER*      MOCLDY    43  39  87 CALM      30.12R
ORANGE*        MOCLDY    43  37  81 CALM      30.12R
GORDONSVILLE*  FAIR      43  37  82 CALM      30.10S
WARRENTON*     FAIR      40  39  99 CALM      30.11S

$$

VAZ055>057-260200-
NORTH AND CENTRAL PIEDMONT

CITY           SKY/WX    TMP DP  RH WIND       PRES   REMARKS
FREDERICKSBRG* CLOUDY    48  40  74 CALM      30.11S
STAFFORD*      MOCLDY    44  37  74 CALM      30.15S

$$

NCZ024-NYZ072-PAZ021-071-VAZ022-071-260200-
OTHER REGIONAL OBSERVATIONS

CITY           SKY/WX    TMP DP  RH WIND       PRES   REMARKS
NEW YORK CITY  MOCLDY    52  29  41 W6        30.11R
PHILADELPHIA   CLOUDY    49  31  49 W8        30.13R
PITTSBURGH     CLEAR     34  25  69 NW5       30.15R
ROANOKE        MOCLDY    46  30  53 CALM      30.12R
RICHMOND       CLOUDY    53  41  63 CALM      30.11R
RALEIGH        LGT RAIN  53  41  63 CALM      30.10R

$$

ANZ530>537-260200-
MARINE OBSERVATIONS

STATION/POSITION TIME  TEMP    WIND        PRES
                       AIR SEA DIR/SP/G
                 (UTC) (F)     (DEG/KT/KT) (MB)
THOMAS PT LIGHT  0100   49 48  210/  3/  3 1021.1R
BALT KEY BRIDGE  0100   49     130/  4/  4 1019.7S
COVE POINT       0100   51     240/  1/  2 1019.1F
LEWISETTA        0100   51 50     CALM     1019.1F
SOLOMONS ISLAND  0100      50                N/A
PINEY POINT      0100           80/  1/  2   N/A

$$



USA.gov is the U.S. government's official web portal to all federal, state and local government web resources and services.